Medford, OR

10:56 AM PST on February 24, 2018 (GMT -0800)
Rogue Valley International-Medford

Weather History for KMFR - May, 2014

Change the Weather History Date:

Friday, May 30, 2014

  Actual Average Record
Temperature  
Mean Temperature 66 °F 63 °F  
Max Temperature 84 °F 77 °F 103 °F (1986)
Min Temperature 47 °F 49 °F 34 °F (1979)
Degree Days  
Heating Degree Days 0 4  
Month to date heating degree days 107 193  
Since 1 July heating degree days 4157 4192  
Cooling Degree Days 1 2  
Month to date cooling degree days 51 36  
Year to date cooling degree days 55 39  
Growing Degree Days 16 (Base 50)    
Moisture  
Dew Point 43 °F    
Average Humidity 49    
Maximum Humidity 80    
Minimum Humidity 18    
Precipitation  
Precipitation 0.00 in 0.04 in 0.74 in (1993)
Month to date precipitation 0.47 1.27  
Year to date precipitation 10.12 8.80  
Snow  
Snow 0.00 in 0.00 in - ()
Month to date snowfall 0.0 0.0  
Since 1 July snowfall 3.4 4.1  
Snow Depth 0.00 in    
Sea Level Pressure  
Sea Level Pressure 29.92 in    
Wind  
Wind Speed 5 mph (NNW)    
Max Wind Speed 20 mph    
Max Gust Speed 23 mph    
Visibility 10 miles    
Events      
T = Trace of Precipitation, MM = Missing Value Source: NWS Daily Summary

Daily Weather History Graph

Daily Weather History Graph

Search for Another Location

Airport or City:

Trip Planner

Search our weather history database for the weather conditions in past years. The results will help you decide how hot, cold, wet, or windy it might be!

Date:

Astronomy

May. 30, 2014 Rise Set
Actual Time 5:38 AM PDT 8:40 PM PDT
Civil Twilight 5:04 AM PDT 9:14 PM PDT
Nautical Twilight 4:21 AM PDT 9:57 PM PDT
Astronomical Twilight 3:30 AM PDT 10:48 PM PDT
Moon 7:28 AM PDT (5/30) 10:19 PM PDT (5/30)
Length of Visible Light 16h 09m
Length of Day
15h 02m
Waxing Crescent, 4% of the Moon is Illuminated
May 30
Waxing Crescent
Jun 5
First Quarter
Jun 12
Full
Jun 19
Last Quarter
Jun 27
New

Hourly Weather History & Observations

Time (PDT) Temp. Dew Point Humidity Pressure Visibility Wind Dir Wind Speed Gust Speed Precip Events Conditions
12:53 AM 61.0 °F 45.0 °F 56% 29.99 in 10.0 mi WNW 3.5 mph - N/A   Clear
1:53 AM 57.9 °F 44.1 °F 60% 29.98 in 10.0 mi WNW 5.8 mph - N/A   Clear
2:53 AM 54.0 °F 44.1 °F 69% 29.97 in 10.0 mi Calm Calm - N/A   Clear
3:53 AM 53.1 °F 44.1 °F 71% 29.96 in 10.0 mi West 3.5 mph - N/A   Clear
4:53 AM 50.0 °F 43.0 °F 77% 29.96 in 10.0 mi Calm Calm - N/A   Clear
5:53 AM 48.0 °F 43.0 °F 83% 29.96 in 10.0 mi ENE 4.6 mph - N/A   Clear
6:53 AM 52.0 °F 44.1 °F 74% 29.97 in 10.0 mi Calm Calm - N/A   Clear
7:53 AM 54.0 °F 45.0 °F 72% 29.97 in 10.0 mi North 3.5 mph - N/A   Clear
8:53 AM 57.9 °F 46.0 °F 65% 29.96 in 10.0 mi Variable 3.5 mph - N/A   Clear
9:53 AM 62.1 °F 46.0 °F 56% 29.94 in 10.0 mi Calm Calm - N/A   Clear
10:53 AM 64.9 °F 46.0 °F 50% 29.92 in 10.0 mi Calm Calm - N/A   Clear
11:53 AM 71.1 °F 46.0 °F 41% 29.90 in 10.0 mi NNW 4.6 mph - N/A   Clear
12:53 PM 73.9 °F 45.0 °F 35% 29.88 in 10.0 mi NNW 4.6 mph - N/A   Clear
1:53 PM 79.0 °F 43.0 °F 28% 29.86 in 10.0 mi NW 8.1 mph - N/A   Clear
3:53 PM 82.9 °F 36.0 °F 19% 29.83 in 10.0 mi WNW 11.5 mph - N/A   Clear
4:53 PM 84.0 °F 39.9 °F 21% 29.82 in 10.0 mi West 10.4 mph - N/A   Clear
5:53 PM 82.9 °F 39.9 °F 22% 29.81 in 10.0 mi WNW 12.7 mph - N/A   Clear
6:26 PM 81.0 °F 39.9 °F 23% 29.84 in 10.0 mi North 19.6 mph - N/A   Clear
6:53 PM 79.0 °F 37.0 °F 22% 29.83 in 10.0 mi NNW 16.1 mph - N/A   Clear
7:53 PM 75.0 °F 37.9 °F 26% 29.87 in 10.0 mi North 11.5 mph - N/A   Clear
8:53 PM 71.1 °F 41.0 °F 34% 29.90 in 10.0 mi NNW 6.9 mph - N/A   Clear
9:53 PM 64.0 °F 43.0 °F 46% 29.94 in 10.0 mi ENE 4.6 mph - N/A   Clear
10:53 PM 64.9 °F 43.0 °F 45% 29.95 in 10.0 mi Calm Calm - N/A   Clear
11:53 PM 62.1 °F 43.0 °F 50% 29.95 in 10.0 mi SSE 4.6 mph - N/A   Clear